Clermont County, Batavia, OH

3:42 AM EST on December 06, 2019 (GMT -0500)
Clermont County, Batavia

Weather History for KI69 - September, 2019

Change the Weather History Date:

Tuesday, September 24, 2019

  Actual Average (WUND) Record (WUND)
Temperature  
Mean Temperature 64 °F -  
Max Temperature 77 °F - - (-1)
Min Temperature 50 °F - - (-1)
Degree Days  
Heating Degree Days 2    
Growing Degree Days 14 (Base 50)    
Moisture  
Dew Point 51 °F    
Average Humidity 65    
Maximum Humidity 97    
Minimum Humidity 35    
Precipitation  
Precipitation 0.00 in - - ()
Sea Level Pressure  
Sea Level Pressure 30.02 in    
Wind  
Wind Speed 2 mph (North)    
Max Wind Speed 7 mph    
Max Gust Speed -    
Visibility 10 miles    
Events      
Averages and records for this station are not official NWS values.
T = Trace of Precipitation, MM = Missing Value Source: NWS Daily Summary

Daily Weather History Graph

Daily Weather History Graph

Search for Another Location

Airport or City:

Astronomy

Sep. 24, 2019 Rise Set
Actual Time 7:26 AM EDT 7:31 PM EDT
Civil Twilight 6:59 AM EDT 7:57 PM EDT
Nautical Twilight 6:28 AM EDT 8:28 PM EDT
Astronomical Twilight 5:56 AM EDT 9:00 PM EDT
Moon 2:13 AM EDT (9/24) 5:13 PM EDT (9/24)
Length of Visible Light 12h 58m
Length of Day
12h 04m
Waning Crescent, 23% of the Moon is Illuminated
Sep 24
Waning Crescent
Sep 28
New
Oct 5
First Quarter
Oct 13
Full
Oct 21
Last Quarter

Hourly Weather History & Observations

Time (EDT) Temp. Dew Point Humidity Pressure Visibility Wind Dir Wind Speed Gust Speed Precip Events Conditions
12:17 AM 63.7 °F 50.2 °F 61% 30.04 in 10.0 mi North 4.6 mph - N/A   Clear
12:35 AM 63.0 °F 50.0 °F 63% 30.05 in 10.0 mi North 4.6 mph - N/A   Clear
12:56 AM 61.5 °F 50.0 °F 66% 30.04 in 10.0 mi NNE 5.8 mph - N/A   Clear
1:15 AM 60.1 °F 50.0 °F 69% 30.04 in 10.0 mi North 6.9 mph - N/A   Clear
1:39 AM 60.8 °F 50.0 °F 68% 30.04 in 10.0 mi North 3.5 mph - N/A   Clear
1:57 AM 61.2 °F 49.5 °F 65% 30.04 in 10.0 mi North 4.6 mph - N/A   Clear
2:15 AM 61.0 °F 49.1 °F 65% 30.04 in 10.0 mi North 5.8 mph - N/A   Clear
2:35 AM 60.4 °F 49.1 °F 66% 30.04 in 10.0 mi Calm Calm - N/A   Clear
2:56 AM 58.6 °F 49.3 °F 71% 30.04 in 10.0 mi Calm Calm - N/A   Clear
3:19 AM 57.4 °F 49.8 °F 76% 30.04 in 10.0 mi Calm Calm - N/A   Clear
3:37 AM 56.1 °F 50.4 °F 81% 30.04 in 10.0 mi Calm Calm - N/A   Clear
3:55 AM 56.3 °F 50.9 °F 82% 30.04 in 10.0 mi Calm Calm - N/A   Clear
4:15 AM 54.3 °F 50.5 °F 87% 30.04 in 10.0 mi Calm Calm - N/A   Clear
4:59 AM 52.7 °F 50.9 °F 94% 30.05 in 10.0 mi Calm Calm - N/A   Clear
5:17 AM 52.3 °F 50.0 °F 92% 30.05 in 10.0 mi Calm Calm - N/A   Clear
5:35 AM 52.0 °F 50.2 °F 94% 30.05 in 10.0 mi Calm Calm - N/A   Clear
5:55 AM 51.6 °F 49.6 °F 93% 30.06 in 10.0 mi Calm Calm - N/A   Clear
6:15 AM 50.9 °F 50.0 °F 97% 30.06 in 10.0 mi Calm Calm - N/A   Clear
6:38 AM 51.1 °F 50.2 °F 97% 30.06 in 10.0 mi Calm Calm - N/A   Clear
6:57 AM 50.0 °F 48.7 °F 95% 30.06 in 10.0 mi Calm Calm - N/A   Clear
7:15 AM 51.4 °F 49.6 °F 94% 30.07 in 10.0 mi SW 3.5 mph - N/A   Clear
7:35 AM 51.4 °F 49.5 °F 93% 30.07 in 10.0 mi Calm Calm - N/A   Clear
7:55 AM 51.3 °F 50.0 °F 95% 30.07 in 10.0 mi Calm Calm - N/A   Clear
8:18 AM 52.9 °F 51.1 °F 94% 30.08 in 10.0 mi Calm Calm - N/A   Clear
8:37 AM 54.9 °F 52.9 °F 93% 30.08 in 10.0 mi Calm Calm - N/A   Clear
8:55 AM 56.7 °F 53.6 °F 89% 30.08 in 10.0 mi Calm Calm - N/A   Clear
9:15 AM 60.3 °F 53.4 °F 78% 30.09 in 10.0 mi Calm Calm - N/A   Clear
9:35 AM 62.2 °F 53.4 °F 73% 30.08 in 10.0 mi West 3.5 mph - N/A   Clear
9:58 AM 64.2 °F 52.5 °F 66% 30.08 in 10.0 mi Calm Calm - N/A   Clear
10:17 AM 65.7 °F 53.6 °F 65% 30.08 in 10.0 mi Calm Calm - N/A   Clear
10:55 AM 67.3 °F 53.6 °F 61% 30.08 in 10.0 mi Calm Calm - N/A   Clear
11:15 AM 68.4 °F 53.1 °F 58% 30.08 in 10.0 mi East 3.5 mph - N/A   Clear
11:38 AM 69.8 °F 53.2 °F 56% 30.08 in 10.0 mi Calm Calm - N/A   Clear
11:56 AM 70.7 °F 52.7 °F 53% 30.08 in 10.0 mi North 4.6 mph - N/A   Clear
12:16 PM 70.9 °F 52.5 °F 52% 30.07 in 10.0 mi Calm Calm - N/A   Clear
12:35 PM 72.1 °F 49.5 °F 45% 30.06 in 10.0 mi East 4.6 mph - N/A   Clear
12:55 PM 72.9 °F 49.8 °F 44% 30.06 in 10.0 mi Calm Calm - N/A   Clear
1:18 PM 74.1 °F 49.8 °F 42% 30.05 in 10.0 mi WSW 3.5 mph - N/A   Scattered Clouds
1:36 PM 73.8 °F 49.6 °F 43% 30.05 in 10.0 mi Calm Calm - N/A   Scattered Clouds
1:55 PM 75.0 °F 49.5 °F 40% 30.04 in 10.0 mi NNW 3.5 mph - N/A   Scattered Clouds
2:16 PM 74.3 °F 48.9 °F 41% 30.03 in 10.0 mi NNW 3.5 mph - N/A   Scattered Clouds
2:35 PM 75.7 °F 49.6 °F 40% 30.02 in 10.0 mi SW 5.8 mph - N/A   Clear
2:58 PM 75.6 °F 48.9 °F 39% 30.01 in 10.0 mi SE 3.5 mph - N/A   Clear
3:16 PM 76.1 °F 49.5 °F 39% 30.01 in 10.0 mi NW 3.5 mph - N/A   Scattered Clouds
3:35 PM 76.1 °F 48.7 °F 38% 30.00 in 10.0 mi East 4.6 mph - N/A   Clear
3:55 PM 77.5 °F 49.6 °F 37% 30.00 in 10.0 mi Calm Calm - N/A   Scattered Clouds
4:15 PM 76.5 °F 48.6 °F 37% 29.99 in 10.0 mi Calm Calm - N/A   Scattered Clouds
4:38 PM 76.3 °F 49.1 °F 38% 29.99 in 10.0 mi Calm Calm - N/A   Clear
5:35 PM 76.6 °F 46.8 °F 35% 29.97 in 10.0 mi Calm Calm - N/A   Clear
5:59 PM 76.1 °F 47.7 °F 37% 29.97 in 10.0 mi Calm Calm - N/A   Clear
6:18 PM 75.7 °F 48.2 °F 38% 29.97 in 10.0 mi Calm Calm - N/A   Clear
6:36 PM 75.7 °F 48.6 °F 38% 29.97 in 10.0 mi SE 3.5 mph - N/A   Clear
6:55 PM 72.7 °F 51.3 °F 47% 29.97 in 10.0 mi South 3.5 mph - N/A   Clear
7:15 PM 72.1 °F 51.4 °F 48% 29.97 in 10.0 mi Calm Calm - N/A   Clear
7:39 PM 70.7 °F 51.8 °F 51% 29.97 in 10.0 mi South 3.5 mph - N/A   Clear
7:58 PM 69.6 °F 51.6 °F 53% 29.97 in 10.0 mi Calm Calm - N/A   Clear
8:16 PM 67.8 °F 52.2 °F 57% 29.96 in 10.0 mi Calm Calm - N/A   Clear
8:35 PM 66.6 °F 52.2 °F 60% 29.96 in 10.0 mi Calm Calm - N/A   Clear
8:55 PM 67.1 °F 51.3 °F 57% 29.96 in 10.0 mi South 3.5 mph - N/A   Clear
9:19 PM 66.2 °F 51.4 °F 59% 29.96 in 10.0 mi South 3.5 mph - N/A   Clear
9:37 PM 63.5 °F 53.6 °F 70% 29.96 in 10.0 mi Calm Calm - N/A   Clear
9:56 PM 63.5 °F 53.6 °F 70% 29.97 in 10.0 mi Calm Calm - N/A   Clear
10:15 PM 61.9 °F 53.6 °F 74% 29.97 in 10.0 mi Calm Calm - N/A   Clear
10:35 PM 60.8 °F 53.6 °F 77% 29.96 in 10.0 mi Calm Calm - N/A   Clear
10:59 PM 61.0 °F 53.1 °F 75% 29.96 in 10.0 mi Calm Calm - N/A   Clear
11:17 PM 60.4 °F 53.6 °F 78% 29.96 in 10.0 mi Calm Calm - N/A   Clear
11:36 PM 59.2 °F 52.2 °F 78% 29.95 in 10.0 mi Calm Calm - N/A   Clear
11:55 PM 59.2 °F 52.7 °F 79% 29.95 in 10.0 mi Calm Calm - N/A   Clear